American Canyon, CA

8:27 AM PST on February 23, 2017 (GMT -0800)
Napa County

Weather History for KAPC - November, 2013

Change the Weather History Date:

Thursday, November 7, 2013

  Actual Average Record
Temperature  
Mean Temperature 59 °F 54 °F  
Max Temperature 74 °F 67 °F 77 °F (2006)
Min Temperature 44 °F 40 °F 32 °F (2011)
Degree Days  
Heating Degree Days 6    
Month to date heating degree days 68  
Since 1 July heating degree days 378  
Cooling Degree Days 0    
Month to date cooling degree days 0  
Year to date cooling degree days 303  
Growing Degree Days 10 (Base 50)    
Moisture  
Dew Point 39 °F    
Average Humidity 59    
Maximum Humidity 93    
Minimum Humidity 25    
Precipitation  
Precipitation 0.00 in - 1.08 in (2002)
Month to date precipitation 0.00  
Year to date precipitation 2.82  
Since 1 July precipitation 0.85  
Sea Level Pressure  
Sea Level Pressure 30.10 in    
Wind  
Wind Speed 4 mph (SW)    
Max Wind Speed 54 mph    
Max Gust Speed 104 mph    
Visibility 10 miles    
Events      
T = Trace of Precipitation, MM = Missing Value Source: NWS Daily Summary

Daily Weather History Graph

Daily Weather History Graph

Search for Another Location

Airport or City:

Trip Planner

Search our weather history database for the weather conditions in past years. The results will help you decide how hot, cold, wet, or windy it might be!

Date:

Astronomy

Nov. 07, 2013 Rise Set
Actual Time 6:41 AM PST 5:03 PM PST
Civil Twilight 6:14 AM PST 5:30 PM PST
Nautical Twilight 5:42 AM PST 6:02 PM PST
Astronomical Twilight 5:11 AM PST 6:33 PM PST
Moon 10:54 AM PST (11/7) 9:21 PM PST (11/7)
Length of Visible Light 11h 16m
Length of Day
10h 21m
Waxing Crescent, 24% of the Moon is Illuminated
Nov 7
Waxing Crescent
Nov 9
First Quarter
Nov 17
Full
Nov 25
Last Quarter
Dec 2
New

Hourly Weather History & Observations

Time (PST) Temp. Dew Point Humidity Pressure Visibility Wind Dir Wind Speed Gust Speed Precip Events Conditions
12:54 AM 53.1 °F 37.0 °F 55% 30.14 in 10.0 mi NNW 8.1 mph - N/A   Clear
1:54 AM 51.1 °F 39.9 °F 66% 30.14 in 10.0 mi Calm Calm - N/A   Clear
2:54 AM 48.9 °F 36.0 °F 61% 30.12 in 10.0 mi ESE 4.6 mph - N/A   Clear
3:54 AM 48.0 °F 36.0 °F 63% 30.12 in 10.0 mi Calm Calm - N/A   Clear
4:04 AM 48.2 °F 35.6 °F 62% 30.15 in 10.0 mi Calm Calm - N/A   Clear
4:54 AM 48.0 °F 36.0 °F 63% 30.12 in 10.0 mi NNW 3.5 mph - N/A   Clear
5:54 AM 50.0 °F 36.0 °F 59% 30.12 in 10.0 mi NE 4.6 mph - N/A   Clear
6:54 AM 50.0 °F 37.0 °F 61% 30.13 in 10.0 mi Calm Calm - N/A   Clear
7:54 AM 53.1 °F 39.9 °F 61% 30.15 in 10.0 mi Calm Calm - N/A   Mostly Cloudy
8:54 AM 61.0 °F 37.0 °F 41% 30.14 in 10.0 mi Calm Calm - N/A   Clear
9:20 AM 62.6 °F 37.4 °F 39% 30.18 in 10.0 mi North 9.2 mph - N/A   Clear
9:54 AM 63.0 °F 35.1 °F 35% 30.14 in 10.0 mi Calm Calm - N/A   Clear
10:54 AM 68.0 °F 35.1 °F 30% 30.12 in 10.0 mi Variable 4.6 mph - N/A   Clear
11:54 AM 70.0 °F 36.0 °F 29% 30.11 in 10.0 mi WSW 5.8 mph - N/A   Clear
12:54 PM 72.0 °F 37.0 °F 28% 30.08 in 10.0 mi SW 8.1 mph - N/A   Clear
1:54 PM 73.0 °F 35.1 °F 25% 30.06 in 10.0 mi SSW 5.8 mph - N/A   Clear
2:54 PM 71.1 °F 37.0 °F 29% 30.05 in 10.0 mi SSW 10.4 mph - N/A   Clear
3:54 PM 69.1 °F 42.1 °F 38% 30.05 in 10.0 mi SSW 9.2 mph - N/A   Clear
4:54 PM 64.9 °F 39.0 °F 39% 30.04 in 10.0 mi WSW 10.4 mph - N/A   Clear
5:54 PM 60.1 °F 41.0 °F 49% 30.06 in 10.0 mi South 5.8 mph - N/A   Clear
6:54 PM 57.9 °F 48.0 °F 70% 30.06 in 10.0 mi Variable 4.6 mph - N/A   Clear
7:54 PM 55.0 °F 48.0 °F 77% 30.06 in 10.0 mi Calm Calm - N/A   Clear
8:54 PM 54.0 °F 48.0 °F 80% 30.05 in 10.0 mi SW 5.8 mph - N/A   Clear
9:54 PM 50.0 °F 46.0 °F 86% 30.06 in 10.0 mi SSE 3.5 mph - N/A   Clear
10:54 PM 46.9 °F 45.0 °F 93% 30.06 in 10.0 mi SSE 3.5 mph - N/A   Clear
11:54 PM 46.0 °F 44.1 °F 93% 30.06 in 10.0 mi Calm Calm - N/A   Clear